N7WDZ-WX Weather Reports


Display with metric or nautical units.
time (UTC)temp
F
wind
direction
speed
MPH
gust
MPH
rain 1hr
in
rain 24hr
in
rain mn
in
humidity
%
barometer
mb
20260502152039 77 0 0.0 0.0 0.00 0.00 0.00 17 1017.0
20260502151559 75 0 0.0 0.0 0.00 0.00 0.00 17 1017.0
20260502151042 73 0 0.0 0.0 0.00 0.00 0.00 19 1017.0
20260502150543 73 0 0.0 0.0 0.00 0.00 0.00 19 1017.0
20260502130542 67 0 0.0 5.0 0.00 0.00 0.00 17 1016.1
20260502123538 68 309 3.0 7.0 0.00 0.00 0.00 16 1015.8
20260502123051 68 312 4.0 7.0 0.00 0.00 0.00 16 1015.7
20260502122538 68 326 3.0 6.0 0.00 0.00 0.00 16 1015.7
20260502122040 68 330 3.0 8.0 0.00 0.00 0.00 16 1015.7
20260502121555 68 330 4.0 8.0 0.00 0.00 0.00 16 1015.7
20260502121039 68 304 3.0 8.0 0.00 0.00 0.00 16 1015.6
20260502120542 68 320 4.0 7.0 0.00 0.00 0.00 16 1015.6
20260502115542 68 319 4.0 8.0 0.00 0.00 0.00 16 1015.6
20260502115042 68 320 3.0 7.0 0.00 0.00 0.00 16 1015.6
20260502114600 68 302 3.0 7.0 0.00 0.00 0.00 16 1015.6
20260502114041 68 324 3.0 6.0 0.00 0.00 0.00 16 1015.6
20260502113542 68 0 1.0 4.0 0.00 0.00 0.00 16 1015.6
20260502113053 68 309 1.0 6.0 0.00 0.00 0.00 16 1015.6
20260502112541 68 0 2.0 6.0 0.00 0.00 0.00 16 1015.5
20260502112041 68 314 2.0 5.0 0.00 0.00 0.00 16 1015.5
20260502111550 68 319 2.0 5.0 0.00 0.00 0.00 16 1015.5
20260502111042 68 287 2.0 6.0 0.00 0.00 0.00 16 1015.5
20260502110543 68 310 3.0 6.0 0.00 0.00 0.00 16 1015.5
20260502110053 68 309 3.0 6.0 0.00 0.00 0.00 16 1015.5
20260502105542 67 316 2.0 4.0 0.00 0.00 0.00 16 1015.5
20260502105043 67 316 1.0 3.0 0.00 0.00 0.00 16 1015.5
20260502104554 68 0 0.0 0.0 0.00 0.00 0.00 16 1015.5
20260502104043 69 0 0.0 3.0 0.00 0.00 0.00 15 1015.4
20260502103542 69 0 0.0 3.0 0.00 0.00 0.00 15 1015.5
20260502103049 69 319 1.0 5.0 0.00 0.00 0.00 15 1015.5
20260502102542 69 343 2.0 6.0 0.00 0.00 0.00 15 1015.5
20260502102042 69 319 3.0 6.0 0.00 0.00 0.00 15 1015.4
20260502101550 68 328 2.0 5.0 0.00 0.00 0.00 16 1015.4
20260502101039 68 309 2.0 5.0 0.00 0.00 0.00 16 1015.4
20260502100541 68 309 3.0 5.0 0.00 0.00 0.00 15 1015.5
20260502100104 69 308 2.0 5.0 0.00 0.00 0.00 15 1015.4
20260502091042 70 70 1.0 7.0 0.00 0.00 0.00 15 1015.4
20260502090542 68 0 2.0 7.0 0.00 0.00 0.00 16 1015.5
20260502071129 75 22 3.0 13.0 0.00 0.00 0.00 11 1015.5
20260502070541 75 82 5.0 13.0 0.00 0.00 0.00 11 1015.4
20260502070048 75 0 1.0 10.0 0.00 0.00 0.00 11 1015.5
20260502065541 76 0 2.0 10.0 0.00 0.00 0.00 11 1015.4
20260502065042 75 74 2.0 8.0 0.00 0.00 0.00 11 1015.5
20260502064556 75 51 3.0 11.0 0.00 0.00 0.00 11 1015.4
20260502064041 75 44 1.0 11.0 0.00 0.00 0.00 11 1015.4
20260502063542 73 18 5.0 10.0 0.00 0.00 0.00 12 1015.4
20260502063052 73 0 0.0 0.0 0.00 0.00 0.00 14 1015.4
20260502062544 73 0 0.0 3.0 0.00 0.00 0.00 13 1015.3
20260502062042 73 0 0.0 3.0 0.00 0.00 0.00 14 1015.3
20260502061548 73 0 0.0 0.0 0.00 0.00 0.00 14 1015.3
20260502061043 74 0 0.0 0.0 0.00 0.00 0.00 13 1015.3
20260502060542 73 0 0.0 0.0 0.00 0.00 0.00 11 1015.1
20260502060050 73 0 0.0 1.0 0.00 0.00 0.00 13 1015.1
20260502055543 73 0 0.0 2.0 0.00 0.00 0.00 12 1015.1
20260502055042 74 0 0.0 2.0 0.00 0.00 0.00 12 1015.0
20260502054547 74 0 0.0 3.0 0.00 0.00 0.00 12 1015.1
20260502054044 74 0 0.0 3.0 0.00 0.00 0.00 12 1015.0
20260502053541 74 0 0.0 1.0 0.00 0.00 0.00 12 1015.0
20260502053052 74 0 0.0 1.0 0.00 0.00 0.00 12 1015.0
20260502052543 74 0 0.0 1.0 0.00 0.00 0.00 13 1015.0
20260502052038 74 0 0.0 0.0 0.00 0.00 0.00 13 1015.0
20260502051627 74 0 0.0 4.0 0.00 0.00 0.00 13 1014.9
20260502051040 74 0 2.0 4.0 0.00 0.00 0.00 13 1014.8
20260502050542 75 0 0.0 7.0 0.00 0.00 0.00 12 1014.7
20260502050052 75 284 3.0 7.0 0.00 0.00 0.00 12 1014.6
20260502045542 75 334 3.0 5.0 0.00 0.00 0.00 13 1014.5
20260502045042 74 334 0.0 4.0 0.00 0.00 0.00 13 1014.4
20260502044557 74 0 2.0 4.0 0.00 0.00 0.00 13 1014.4
20260502044042 75 330 1.0 4.0 0.00 0.00 0.00 13 1014.3
20260502043542 75 0 0.0 0.0 0.00 0.00 0.00 12 1014.2
20260502043050 75 0 0.0 3.0 0.00 0.00 0.00 12 1014.1
20260502042542 76 0 0.0 3.0 0.00 0.00 0.00 12 1014.1
20260502042042 76 356 0.0 1.0 0.00 0.00 0.00 12 1014.0
20260502041552 76 0 0.0 4.0 0.00 0.00 0.00 12 1013.9
20260502041042 76 0 0.0 4.0 0.00 0.00 0.00 12 1013.9
20260502040540 76 0 0.0 4.0 0.00 0.00 0.00 11 1013.8
20260502040047 77 0 0.0 5.0 0.00 0.00 0.00 11 1013.8
20260502035543 76 355 1.0 6.0 0.00 0.00 0.00 11 1013.7
20260502035040 76 57 3.0 7.0 0.00 0.00 0.00 12 1013.7
20260502034552 77 23 4.0 7.0 0.00 0.00 0.00 11 1013.6
20260502034041 77 0 0.0 5.0 0.00 0.00 0.00 11 1013.5
20260502033542 77 0 2.0 9.0 0.00 0.00 0.00 11 1013.5
20260502033056 77 0 3.0 9.0 0.00 0.00 0.00 11 1013.4
20260502032538 77 51 3.0 6.0 0.00 0.00 0.00 11 1013.4
20260502032042 77 30 1.0 6.0 0.00 0.00 0.00 11 1013.3
20260502031607 77 45 0.0 5.0 0.00 0.00 0.00 11 1013.3
20260502031041 78 13 0.0 2.0 0.00 0.00 0.00 11 1013.1
20260502030541 78 0 0.0 3.0 0.00 0.00 0.00 11 1013.1
20260502030051 78 0 0.0 5.0 0.00 0.00 0.00 12 1013.0
20260502025541 79 353 1.0 5.0 0.00 0.00 0.00 11 1012.9
20260502025042 79 65 1.0 5.0 0.00 0.00 0.00 11 1012.8
20260502024555 79 0 0.0 4.0 0.00 0.00 0.00 12 1012.8
20260502024042 79 0 1.0 6.0 0.00 0.00 0.00 12 1012.7
20260502023541 80 349 1.0 9.0 0.00 0.00 0.00 11 1012.5
20260502023051 80 353 3.0 14.0 0.00 0.00 0.00 11 1012.5
20260502022544 80 330 5.0 14.0 0.00 0.00 0.00 11 1012.4
20260502022042 80 323 4.0 9.0 0.00 0.00 0.00 11 1012.4
20260502021552 81 319 4.0 9.0 0.00 0.00 0.00 11 1012.3
20260502021043 81 319 5.0 9.0 0.00 0.00 0.00 11 1012.3
20260502020545 81 330 4.0 8.0 0.00 0.00 0.00 11 1012.4
20260502020100 82 316 3.0 8.0 0.00 0.00 0.00 11 1012.3
20260502015539 82 342 3.0 10.0 0.00 0.00 0.00 10 1012.4
20260502015042 82 335 5.0 10.0 0.00 0.00 0.00 10 1012.2
20260502014546 82 340 5.0 11.0 0.00 0.00 0.00 10 1012.3
20260502014041 82 354 6.0 12.0 0.00 0.00 0.00 10 1012.1
20260502013540 82 357 7.0 12.0 0.00 0.00 0.00 10 1012.1
20260502013048 82 4 7.0 13.0 0.00 0.00 0.00 10 1012.1
20260502012542 82 9 6.0 13.0 0.00 0.00 0.00 10 1012.1
20260502012041 82 311 6.0 14.0 0.00 0.00 0.00 11 1012.1
20260502011552 82 304 7.0 14.0 0.00 0.00 0.00 10 1012.1
20260502011038 83 335 6.0 12.0 0.00 0.00 0.00 10 1012.1
20260502010538 83 322 4.0 12.0 0.00 0.00 0.00 11 1012.0
20260502010056 83 47 5.0 15.0 0.00 0.00 0.00 10 1012.1
20260502005543 83 345 8.0 15.0 0.00 0.00 0.00 10 1012.1
20260502005044 83 338 5.0 16.0 0.00 0.00 0.00 11 1012.0
20260502004559 83 349 6.0 20.0 0.00 0.00 0.00 11 1012.0
20260502004041 83 340 9.0 20.0 0.00 0.00 0.00 11 1012.1
20260502003541 83 314 11.0 19.0 0.00 0.00 0.00 11 1012.0
20260502003057 83 357 6.0 10.0 0.00 0.00 0.00 11 1011.9
20260502002541 84 342 4.0 11.0 0.00 0.00 0.00 11 1011.9
20260502002040 83 6 3.0 11.0 0.00 0.00 0.00 11 1012.0
20260502001558 83 328 4.0 11.0 0.00 0.00 0.00 11 1012.0
20260502001043 83 358 3.0 15.0 0.00 0.00 0.00 11 1012.1
20260502000541 83 357 4.0 15.0 0.00 0.00 0.00 11 1012.1
20260502000052 83 332 6.0 16.0 0.00 0.00 0.00 11 1012.1
20260501235543 83 333 8.0 16.0 0.00 0.00 0.00 11 1012.1
20260501235043 83 329 5.0 18.0 0.00 0.00 0.00 11 1012.0
20260501234601 83 328 6.0 18.0 0.00 0.00 0.00 11 1012.2
20260501234038 83 18 5.0 13.0 0.00 0.00 0.00 11 1012.2
20260501233541 83 0 0.0 13.0 0.00 0.00 0.00 10 1012.2
20260501233058 83 0 5.0 13.0 0.00 0.00 0.00 10 1012.2
20260501232541 83 343 8.0 13.0 0.00 0.00 0.00 10 1012.2
20260501232038 83 336 6.0 12.0 0.00 0.00 0.00 10 1012.3
20260501231605 83 319 1.0 13.0 0.00 0.00 0.00 11 1012.2
20260501231038 83 22 5.0 13.0 0.00 0.00 0.00 10 1012.2
20260501230542 83 295 7.0 13.0 0.00 0.00 0.00 10 1012.3
20260501230058 83 271 4.0 13.0 0.00 0.00 0.00 10 1012.3
20260501225541 83 0 2.0 12.0 0.00 0.00 0.00 10 1012.4
20260501225042 83 27 4.0 15.0 0.00 0.00 0.00 10 1012.5
20260501224544 83 313 9.0 15.0 0.00 0.00 0.00 10 1012.6
20260501224038 83 333 5.0 12.0 0.00 0.00 0.00 11 1012.5
20260501223538 83 0 0.0 11.0 0.00 0.00 0.00 10 1012.6
20260501223056 82 0 0.0 12.0 0.00 0.00 0.00 10 1012.6
20260501222538 83 345 7.0 12.0 0.00 0.00 0.00 9 1012.8
20260501222040 83 323 5.0 14.0 0.00 0.00 0.00 11 1012.9
20260501221555 83 45 8.0 14.0 0.00 0.00 0.00 10 1012.9
20260501221041 83 0 1.0 15.0 0.00 0.00 0.00 11 1012.9
20260501220542 83 314 7.0 15.0 0.00 0.00 0.00 11 1013.1
20260501220051 83 6 2.0 7.0 0.00 0.00 0.00 12 1013.1
20260501215542 82 0 2.0 18.0 0.00 0.00 0.00 12 1013.1
20260501215043 83 11 7.0 18.0 0.00 0.00 0.00 12 1013.3
20260501214600 83 345 6.0 14.0 0.00 0.00 0.00 12 1013.3
20260501214041 82 0 4.0 7.0 0.00 0.00 0.00 12 1013.3
20260501213541 82 0 3.0 9.0 0.00 0.00 0.00 13 1013.3
20260501213051 82 288 4.0 11.0 0.00 0.00 0.00 13 1013.4
20260501212538 82 313 6.0 15.0 0.00 0.00 0.00 13 1013.5
20260501212038 83 322 7.0 16.0 0.00 0.00 0.00 13 1013.6
20260501211545 82 300 5.0 16.0 0.00 0.00 0.00 14 1013.6
20260501211041 83 311 9.0 16.0 0.00 0.00 0.00 13 1013.8
20260501210541 83 321 8.0 15.0 0.00 0.00 0.00 13 1013.8
20260501210053 84 285 5.0 11.0 0.00 0.00 0.00 13 1013.8
20260501205543 83 160 0.0 5.0 0.00 0.00 0.00 14 1013.8
20260501205038 83 0 1.0 8.0 0.00 0.00 0.00 13 1013.9
20260501204552 82 0 2.0 15.0 0.00 0.00 0.00 14 1014.0
20260501204040 82 320 8.0 15.0 0.00 0.00 0.00 14 1014.0
20260501203542 82 293 7.0 12.0 0.00 0.00 0.00 15 1013.9
20260501203048 82 166 4.0 9.0 0.00 0.00 0.00 14 1013.9
20260501202542 82 0 3.0 12.0 0.00 0.00 0.00 14 1013.9
20260501202042 83 315 7.0 12.0 0.00 0.00 0.00 14 1014.0
20260501201554 83 98 0.0 10.0 0.00 0.00 0.00 14 1014.0
20260501201041 83 0 2.0 10.0 0.00 0.00 0.00 14 1014.0
20260501200541 83 169 2.0 11.0 0.00 0.00 0.00 14 1014.1
20260501200057 82 171 4.0 11.0 0.00 0.00 0.00 15 1014.1
20260501195542 80 148 3.0 9.0 0.00 0.00 0.00 15 1014.1
20260501195039 80 139 3.0 9.0 0.00 0.00 0.00 15 1014.3
20260501194600 81 117 2.0 8.0 0.00 0.00 0.00 15 1014.3
20260501194039 80 0 0.0 8.0 0.00 0.00 0.00 15 1014.4
20260501193544 80 148 4.0 8.0 0.00 0.00 0.00 15 1014.5
20260501193045 80 86 4.0 7.0 0.00 0.00 0.00 15 1014.6
20260501192540 81 81 2.0 8.0 0.00 0.00 0.00 15 1014.6
20260501192038 81 0 2.0 9.0 0.00 0.00 0.00 15 1014.8
20260501191550 81 172 3.0 9.0 0.00 0.00 0.00 15 1014.8
20260501191038 81 224 3.0 8.0 0.00 0.00 0.00 15 1014.9
20260501190543 80 159 4.0 10.0 0.00 0.00 0.00 15 1014.9
20260501190113 81 113 5.0 18.0 0.00 0.00 0.00 15 1015.0
20260501185542 80 127 4.0 18.0 0.00 0.00 0.00 15 1015.0
20260501185038 80 124 1.0 7.0 0.00 0.00 0.00 15 1014.8
20260501184548 80 311 0.0 7.0 0.00 0.00 0.00 15 1015.1
20260501184042 80 148 1.0 6.0 0.00 0.00 0.00 15 1015.3
20260501183542 80 283 1.0 7.0 0.00 0.00 0.00 15 1015.2
20260501183053 80 175 4.0 7.0 0.00 0.00 0.00 15 1015.4
20260501182541 80 179 2.0 6.0 0.00 0.00 0.00 15 1015.3
20260501182041 79 193 0.0 8.0 0.00 0.00 0.00 16 1015.4
20260501181554 78 152 2.0 8.0 0.00 0.00 0.00 16 1015.4
20260501181045 79 127 3.0 8.0 0.00 0.00 0.00 15 1015.4
20260501180541 78 208 2.0 8.0 0.00 0.00 0.00 16 1015.5
20260501180054 77 94 3.0 8.0 0.00 0.00 0.00 16 1015.6
20260501175542 77 78 2.0 8.0 0.00 0.00 0.00 17 1015.6
20260501175041 77 100 4.0 8.0 0.00 0.00 0.00 16 1015.7
20260501174607 78 37 5.0 8.0 0.00 0.00 0.00 16 1015.7
20260501174042 79 54 3.0 6.0 0.00 0.00 0.00 16 1015.6
20260501173544 80 191 0.0 5.0 0.00 0.00 0.00 16 1015.6
20260501173106 79 0 0.0 5.0 0.00 0.00 0.00 16 1015.7
20260501172542 78 0 0.0 5.0 0.00 0.00 0.00 16 1015.6
20260501172042 77 0 1.0 5.0 0.00 0.00 0.00 17 1015.6
20260501171555 76 0 1.0 9.0 0.00 0.00 0.00 17 1015.6
20260501171045 76 277 5.0 9.0 0.00 0.00 0.00 17 1015.7
20260501170542 76 321 2.0 7.0 0.00 0.00 0.00 17 1015.6
20260501170052 76 43 2.0 5.0 0.00 0.00 0.00 18 1015.6
20260501165542 76 350 0.0 10.0 0.00 0.00 0.00 18 1015.8
20260501165043 75 0 3.0 10.0 0.00 0.00 0.00 18 1015.8
20260501164555 75 316 0.0 8.0 0.00 0.00 0.00 19 1015.7
20260501164041 75 315 5.0 9.0 0.00 0.00 0.00 19 1015.8
20260501163541 74 329 4.0 10.0 0.00 0.00 0.00 19 1015.7
20260501163052 74 312 5.0 10.0 0.00 0.00 0.00 19 1015.6
20260501162541 74 1 6.0 10.0 0.00 0.00 0.00 19 1015.6
20260501162041 74 312 6.0 12.0 0.00 0.00 0.00 20 1015.7
20260501161553 73 328 6.0 13.0 0.00 0.00 0.00 19 1015.7
20260501161044 73 323 8.0 13.0 0.00 0.00 0.00 20 1015.6
20260501160541 73 334 8.0 13.0 0.00 0.00 0.00 20 1015.6
20260501160056 72 307 8.0 13.0 0.00 0.00 0.00 20 1015.6
20260501155542 72 323 7.0 13.0 0.00 0.00 0.00 21 1015.5
20260501155042 72 354 6.0 16.0 0.00 0.00 0.00 21 1015.5
20260501154605 71 323 7.0 16.0 0.00 0.00 0.00 21 1015.4